Flag Weather past 2 weeks in Coral Harbour, Nunavut Territory, Canada

Now
-31 °F

Passing clouds.


Feels Like: -56 °F
Forecast: -26 / -20 °F
Wind: 12 mph from North

Location: Coral Harbour

Current Time: Nov 29, 2014 at 4:03:31 AM

Latest Report: Nov 29, 2014 at 3:00 AM


Visibility: 15 mi

Pressure: 29.61 "Hg

Humidity: 67%

Dew point: -38 °F

Location of Coral HarbourLocation

Historic Weather in Coral Harbour — Graph

°F

Coral Harbour temperature yesterday

Maximum temperature yesterday: -22 °F (at 6:00 AM)
Minimum temperature yesterday: -27 °F (at 12:00 AM)
Average temperature yesterday: -24 °F

Past Weeks' High & Low Weather Summary

 TemperatureHumidityPressure
High14 °F (Nov 16, 3:00 AM)85% (Nov 17, 12:00 AM)29.78 "Hg (Nov 17, 12:00 AM)
Low-33 °F (Nov 27, 5:00 PM)60% (Nov 27, 6:00 PM)29.37 "Hg (Nov 20, 9:00 PM)
Average-10 °F71%29.56 "Hg
* Reported Nov 14 3:00 AM — Nov 29 3:00 AM, Coral Harbour, Weather by CustomWeather, © 2014

Note: Actual official high and low records may vary slightly from our data, if they occured in-between our weather recording intervals... More about our weather records

Advertising

Coral Harbour weather history for previous 24 hours

 ConditionsComfort  
Time TempWeatherWind HumidityBarometerVisibility
3:00 AM
Nov 29
-31 °FPassing clouds.12 mph67%29.61 "Hg15 mi
2:00 AM-29 °FPassing clouds.13 mph60%29.61 "Hg15 mi
1:00 AM-27 °FPassing clouds.13 mph61%29.61 "Hg15 mi
12:00 AM-26 °FPassing clouds.16 mph61%29.58 "Hg15 mi
11:00 PM
Nov 28
-26 °FPassing clouds.17 mph61%29.57 "Hg15 mi
10:00 PM-24 °FPassing clouds.18 mph61%29.57 "Hg15 mi
9:00 PM-27 °FPassing clouds.15 mph67%29.58 "Hg15 mi
8:00 PM-27 °FPassing clouds.16 mph61%29.57 "Hg15 mi
7:00 PM-26 °FPassing clouds.14 mph67%29.58 "Hg15 mi
6:00 PM-26 °FPassing clouds.17 mph67%29.57 "Hg15 mi
5:00 PM-26 °FPassing clouds.18 mph67%29.57 "Hg15 mi
4:00 PM-26 °FPassing clouds.15 mph67%29.57 "Hg15 mi
3:00 PM-26 °FPassing clouds.17 mph67%29.57 "Hg15 mi
2:00 PM-22 °FPassing clouds.14 mph62%29.56 "Hg15 mi
1:00 PM-22 °FPartly sunny.16 mph62%29.56 "Hg15 mi
12:00 PM-24 °FPartly sunny.16 mph68%29.56 "Hg15 mi
11:00 AM-22 °FPartly sunny.17 mph62%29.55 "Hg15 mi
10:00 AM-22 °FPartly sunny.18 mph68%29.55 "Hg15 mi
9:00 AM-24 °FScattered clouds.14 mph68%29.55 "Hg15 mi
8:00 AM-22 °FPassing clouds.15 mph62%29.56 "Hg15 mi
7:00 AM-22 °FPassing clouds.3 mph68%29.57 "Hg15 mi
6:00 AM-22 °FPassing clouds.14 mph62%29.57 "Hg15 mi
5:00 AM-24 °FPassing clouds.16 mph68%29.57 "Hg15 mi
4:00 AM-24 °FPassing clouds.15 mph68%29.57 "Hg15 mi
Weather by CustomWeather, © 2014

See weather overviewHow to use our weather pages